Location: Hertford
(51.8000°N, 0.0667°W)
Time: 01:57:01
(UTC+00:00)

ARGOS - Pass Details

Date: 18 September 2020
Orbit: 821 x 834 km, 98.4° (Epoch: 30 October)

Event Time Altitude Azimuth Distance (km) Brightness Sun altitude
Rises 19:15:22 0° 167° (SSE) 3,343 6.0 -11.2°
Reaches altitude 10° 19:17:42 10° 169° (SSE) 2,415 5.3 -11.6°
Maximum altitude 19:23:04 78° 255° (WSW) 847 3.3 -12.4°
Drops below altitude 10° 19:28:29 10° 343° (NNW) 2,439 6.1 -13.1°
Sets 19:30:51 0° 345° (NNW) 3,379 6.9 -13.5°
